Middletown, OH

9:56 PM EDT on April 28, 2017 (GMT -0400)
Hook Field Municipal

Weather History for KMWO - December, 2013

Change the Weather History Date:

Tuesday, December 31, 2013

  Actual Average (KFFO) Record (KFFO)
Temperature  
Mean Temperature 28 °F -  
Max Temperature 32 °F 35 °F 63 °F (2010)
Min Temperature 25 °F 21 °F 10 °F (1998)
Degree Days  
Heating Degree Days 36    
Moisture  
Dew Point 14 °F    
Average Humidity 57    
Maximum Humidity 73    
Minimum Humidity 42    
Precipitation  
Precipitation 0.00 in - - ()
Sea Level Pressure  
Sea Level Pressure 30.28 in    
Wind  
Wind Speed 10 mph (WSW)    
Max Wind Speed 18 mph    
Max Gust Speed 25 mph    
Visibility 10 miles    
Events Snow    
Averages and records for this station are not official NWS values.
T = Trace of Precipitation, MM = Missing Value Source: NWS Daily Summary

Daily Weather History Graph

Daily Weather History Graph

Search for Another Location

Airport or City:

Trip Planner

Search our weather history database for the weather conditions in past years. The results will help you decide how hot, cold, wet, or windy it might be!

Date:

Astronomy

Dec. 31, 2013 Rise Set
Actual Time 7:57 AM EST 5:23 PM EST
Civil Twilight 7:27 AM EST 5:53 PM EST
Nautical Twilight 6:54 AM EST 6:27 PM EST
Astronomical Twilight 6:21 AM EST 7:00 PM EST
Moon 6:50 AM EST (12/31) 4:58 PM EST (12/31)
Length of Visible Light 10h 26m
Length of Day
9h 25m
Waning Crescent, 1% of the Moon is Illuminated
Dec 31
Waning Crescent
Jan 1
New
Jan 7
First Quarter
Jan 15
Full
Jan 24
Last Quarter

Hourly Weather History & Observations

Time (EST) Temp. Windchill Dew Point Humidity Pressure Visibility Wind Dir Wind Speed Gust Speed Precip Events Conditions
12:15 AM 25.3 °F 15.3 °F 15.1 °F 65% 30.19 in 10.0 mi SSW 10.4 mph - N/A   Mostly Cloudy
12:35 AM 25.3 °F 16.7 °F 15.4 °F 66% 30.19 in 10.0 mi SW 8.1 mph - N/A   Mostly Cloudy
12:55 AM 25.3 °F 16.0 °F 15.1 °F 65% 30.20 in 10.0 mi WSW 9.2 mph - N/A   Overcast
1:15 AM 25.3 °F 17.6 °F 14.9 °F 65% 30.19 in 10.0 mi SW 6.9 mph - N/A   Overcast
1:35 AM 25.3 °F 14.1 °F 14.5 °F 64% 30.19 in 10.0 mi SW 12.7 mph - N/A   Overcast
1:55 AM 25.3 °F 14.7 °F 14.7 °F 64% 30.19 in 10.0 mi SW 11.5 mph 16.1 mph N/A   Mostly Cloudy
2:15 AM 25.3 °F 15.3 °F 14.0 °F 62% 30.19 in 10.0 mi SW 10.4 mph - N/A   Scattered Clouds
2:35 AM 25.3 °F 16.7 °F 13.8 °F 62% 30.19 in 10.0 mi SW 8.1 mph - N/A   Scattered Clouds
2:55 AM 25.3 °F 16.0 °F 13.1 °F 60% 30.20 in 10.0 mi SW 9.2 mph - N/A   Scattered Clouds
3:15 AM 25.3 °F 17.6 °F 13.3 °F 60% 30.20 in 10.0 mi SW 6.9 mph - N/A   Overcast
3:35 AM 25.3 °F 16.7 °F 12.9 °F 59% 30.19 in 10.0 mi WSW 8.1 mph - N/A   Overcast
3:55 AM 25.3 °F 16.7 °F 12.4 °F 58% 30.18 in 10.0 mi WSW 8.1 mph - N/A   Overcast
4:15 AM 25.3 °F 15.3 °F 11.3 °F 55% 30.18 in 10.0 mi WSW 10.4 mph - N/A   Overcast
4:35 AM 25.3 °F 13.6 °F 10.0 °F 52% 30.18 in 10.0 mi West 13.8 mph 17.3 mph N/A   Overcast
4:55 AM 25.3 °F 14.7 °F 10.6 °F 54% 30.18 in 10.0 mi West 11.5 mph 18.4 mph N/A   Overcast
5:15 AM 25.3 °F 14.1 °F 11.3 °F 55% 30.19 in 10.0 mi West 12.7 mph 20.7 mph N/A   Overcast
5:35 AM 25.3 °F 14.7 °F 12.2 °F 58% 30.19 in 10.0 mi West 11.5 mph 20.7 mph N/A   Overcast
5:55 AM 25.3 °F 13.1 °F 12.7 °F 59% 30.20 in 10.0 mi West 15.0 mph 18.4 mph N/A   Overcast
6:15 AM 25.3 °F 11.8 °F 12.9 °F 59% 30.20 in 10.0 mi West 18.4 mph 25.3 mph N/A   Overcast
6:35 AM 25.3 °F 12.6 °F 13.1 °F 60% 30.21 in 10.0 mi West 16.1 mph 21.9 mph N/A   Overcast
6:55 AM 25.3 °F 13.1 °F 13.1 °F 60% 30.21 in 10.0 mi West 15.0 mph - N/A   Overcast
7:15 AM 25.3 °F 15.3 °F 13.3 °F 60% 30.22 in 10.0 mi West 10.4 mph - N/A   Overcast
7:35 AM 25.3 °F 16.7 °F 13.8 °F 62% 30.24 in 10.0 mi West 8.1 mph 20.7 mph N/A   Overcast
7:55 AM 25.3 °F 14.7 °F 13.8 °F 62% 30.25 in 10.0 mi West 11.5 mph 17.3 mph N/A   Overcast
8:15 AM 25.3 °F 14.7 °F 13.1 °F 60% 30.26 in 10.0 mi West 11.5 mph 21.9 mph N/A   Overcast
8:35 AM 25.3 °F 15.3 °F 13.1 °F 60% 30.27 in 10.0 mi West 10.4 mph 16.1 mph N/A   Overcast
8:55 AM 25.3 °F 13.1 °F 12.9 °F 59% 30.29 in 10.0 mi West 15.0 mph - N/A   Overcast
9:15 AM 25.3 °F 14.1 °F 13.1 °F 60% 30.31 in 10.0 mi West 12.7 mph 18.4 mph N/A Snow Light Snow
9:35 AM 25.3 °F 13.6 °F 12.7 °F 59% 30.33 in 10.0 mi West 13.8 mph 23.0 mph N/A   Overcast
9:55 AM 27.9 °F 16.8 °F 14.4 °F 57% 30.35 in 10.0 mi West 13.8 mph 19.6 mph N/A Snow Light Snow
10:15 AM 27.9 °F 17.3 °F 14.0 °F 56% 30.36 in 10.0 mi West 12.7 mph - N/A   Overcast
10:35 AM 27.9 °F 16.3 °F 13.8 °F 56% 30.37 in 10.0 mi WNW 15.0 mph 21.9 mph N/A Snow Light Snow
10:55 AM 27.9 °F 15.9 °F 13.1 °F 54% 30.38 in 10.0 mi West 16.1 mph 23.0 mph N/A   Overcast
11:15 AM 27.9 °F 15.5 °F 13.1 °F 54% 30.38 in 10.0 mi West 17.3 mph 24.2 mph N/A   Overcast
11:35 AM 27.9 °F 15.1 °F 12.0 °F 52% 30.38 in 10.0 mi West 18.4 mph 23.0 mph N/A   Overcast
11:55 AM 27.9 °F 18.4 °F 11.8 °F 51% 30.36 in 10.0 mi West 10.4 mph 21.9 mph N/A   Mostly Cloudy
12:15 PM 28.4 °F 18.0 °F 11.1 °F 48% 30.36 in 10.0 mi West 12.7 mph 18.4 mph N/A   Scattered Clouds
12:35 PM 30.2 °F 20.2 °F 12.0 °F 47% 30.36 in 10.0 mi West 12.7 mph 19.6 mph N/A   Clear
12:55 PM 30.9 °F 21.7 °F 12.6 °F 47% 30.35 in 10.0 mi West 11.5 mph 17.3 mph N/A   Clear
1:15 PM 32.5 °F 22.7 °F 13.6 °F 46% 30.37 in 10.0 mi West 13.8 mph 24.2 mph N/A   Scattered Clouds
1:35 PM 32.5 °F 24.2 °F 13.6 °F 46% 30.36 in 10.0 mi West 10.4 mph 21.9 mph N/A   Scattered Clouds
1:55 PM 32.5 °F 24.2 °F 12.9 °F 44% 30.35 in 10.0 mi WNW 10.4 mph 18.4 mph N/A   Clear
2:15 PM 32.5 °F 23.2 °F 12.4 °F 43% 30.35 in 10.0 mi West 12.7 mph 17.3 mph N/A   Clear
2:35 PM 32.5 °F 23.7 °F 11.8 °F 42% 30.34 in 10.0 mi West 11.5 mph 18.4 mph N/A   Clear
2:55 PM 32.9 °F 24.1 °F 11.8 °F 42% 30.33 in 10.0 mi SW 11.5 mph 18.4 mph N/A   Clear
3:15 PM 32.5 °F 25.5 °F 12.0 °F 43% 30.33 in 10.0 mi WSW 8.1 mph 17.3 mph N/A   Clear
3:35 PM 32.5 °F 23.7 °F 12.9 °F 44% 30.34 in 10.0 mi WSW 11.5 mph 16.1 mph N/A   Clear
3:55 PM 32.5 °F 25.5 °F 13.3 °F 45% 30.32 in 10.0 mi SW 8.1 mph - N/A   Clear
4:15 PM 32.5 °F 24.2 °F 14.0 °F 46% 30.31 in 10.0 mi SW 10.4 mph - N/A   Clear
4:35 PM 32.5 °F 24.2 °F 14.2 °F 47% 30.32 in 10.0 mi SW 10.4 mph - N/A   Scattered Clouds
4:55 PM 32.5 °F 25.5 °F 13.6 °F 46% 30.32 in 10.0 mi SW 8.1 mph - N/A   Scattered Clouds
5:15 PM 32.5 °F 25.5 °F 14.4 °F 47% 30.32 in 10.0 mi WSW 8.1 mph - N/A   Clear
5:35 PM 31.1 °F 26.4 °F 14.9 °F 51% 30.32 in 10.0 mi WSW 4.6 mph - N/A   Clear
5:55 PM 30.2 °F 26.7 °F 14.9 °F 53% 30.32 in 10.0 mi WSW 3.5 mph - N/A   Clear
6:15 PM 30.2 °F 26.7 °F 14.0 °F 51% 30.32 in 10.0 mi SW 3.5 mph - N/A   Scattered Clouds
6:35 PM 27.9 °F - 15.6 °F 60% 30.32 in 10.0 mi Calm Calm - N/A   Mostly Cloudy
6:55 PM 30.0 °F - 15.6 °F 55% 30.32 in 10.0 mi Calm Calm - N/A   Clear
7:15 PM 27.9 °F - 16.5 °F 62% 30.32 in 10.0 mi Calm Calm - N/A   Clear
7:35 PM 27.9 °F - 18.7 °F 68% 30.31 in 10.0 mi Calm Calm - N/A   Clear
7:55 PM 27.9 °F - 20.3 °F 73% 30.31 in 10.0 mi Calm Calm - N/A   Clear
8:15 PM 27.9 °F - 20.1 °F 73% 30.29 in 10.0 mi Calm Calm - N/A   Scattered Clouds
8:35 PM 27.9 °F 24.0 °F 18.5 °F 68% 30.30 in 10.0 mi West 3.5 mph - N/A   Clear
8:55 PM 28.9 °F 25.2 °F 18.0 °F 64% 30.30 in 10.0 mi SW 3.5 mph - N/A   Clear
9:15 PM 27.9 °F 22.6 °F 18.3 °F 67% 30.29 in 10.0 mi SSW 4.6 mph - N/A   Clear
9:35 PM 30.2 °F 23.4 °F 18.3 °F 61% 30.28 in 10.0 mi SW 6.9 mph - N/A   Clear
9:55 PM 32.5 °F 25.5 °F 19.6 °F 59% 30.28 in 10.0 mi SSW 8.1 mph - N/A   Clear
10:15 PM 31.5 °F 24.9 °F 18.5 °F 59% 30.28 in 10.0 mi SSW 6.9 mph - N/A   Clear
10:35 PM 32.2 °F 25.0 °F 19.4 °F 59% 30.28 in 10.0 mi SSW 8.1 mph - N/A   Clear
10:55 PM 32.5 °F 24.8 °F 19.0 °F 58% 30.27 in 10.0 mi SSW 9.2 mph - N/A   Clear
11:15 PM 32.5 °F 29.3 °F 19.8 °F 59% 30.28 in 10.0 mi SW 3.5 mph - N/A   Clear
11:35 PM 32.5 °F 29.3 °F 21.6 °F 64% 30.28 in 10.0 mi WSW 3.5 mph - N/A   Clear
11:55 PM 32.5 °F 28.1 °F 20.8 °F 62% 30.30 in 10.0 mi West 4.6 mph - N/A   Clear